Time,TemperatureF,DewpointF,PressureIn,WindDirection,WindDirectionDegrees,WindSpeedMPH,WindSpeedGustMPH,Humidity,HourlyPrecipIn,Conditions,Clouds,dailyrainin,SoftwareType,DateUTC
2013-05-28 00:09:00,45.8,32.0,29.44,SE,146,0.0,-999.0,60,-99.99,,,0.00,weatherlink.com 1.10,2013-05-28 06:09:00,
2013-05-28 00:24:00,45.4,29.0,29.43,SSW,196,0.0,-999.0,53,-99.99,,,0.00,weatherlink.com 1.10,2013-05-28 06:24:00,
2013-05-28 00:39:00,45.2,26.0,29.43,WNW,284,2.0,-999.0,48,-99.99,,,0.00,weatherlink.com 1.10,2013-05-28 06:39:00,
2013-05-28 00:54:00,45.4,26.0,29.43,WNW,290,1.0,-999.0,46,-99.99,,,0.00,weatherlink.com 1.10,2013-05-28 06:54:00,
2013-05-28 01:09:00,45.7,26.0,29.42,WNW,290,0.0,-999.0,47,-99.99,,,0.00,weatherlink.com 1.10,2013-05-28 07:09:00,
2013-05-28 01:24:00,45.6,27.0,29.42,WNW,290,0.0,-999.0,48,-99.99,,,0.00,weatherlink.com 1.10,2013-05-28 07:24:00,
2013-05-28 01:39:00,45.1,26.0,29.42,WNW,290,0.0,-999.0,48,-99.99,,,0.00,weatherlink.com 1.10,2013-05-28 07:39:00,
2013-05-28 01:54:00,44.8,25.0,29.42,WNW,289,4.0,-999.0,46,-99.99,,,0.00,weatherlink.com 1.10,2013-05-28 07:54:00,
2013-05-28 02:09:00,44.7,25.0,29.42,NW,309,0.0,-999.0,47,-99.99,,,0.00,weatherlink.com 1.10,2013-05-28 08:09:00,
2013-05-28 02:24:00,44.5,25.0,29.42,NW,309,0.0,-999.0,47,-99.99,,,0.00,weatherlink.com 1.10,2013-05-28 08:24:00,
2013-05-28 02:39:00,44.2,25.0,29.42,NW,308,2.0,-999.0,47,-99.99,,,0.00,weatherlink.com 1.10,2013-05-28 08:39:00,
2013-05-28 02:54:00,44.2,26.0,29.42,NW,310,0.0,-999.0,50,-99.99,,,0.00,weatherlink.com 1.10,2013-05-28 08:54:00,
2013-05-28 03:09:00,44.3,26.0,29.43,NE,42,7.0,-999.0,48,-99.99,,,0.00,weatherlink.com 1.10,2013-05-28 09:09:00,
2013-05-28 03:24:00,44.3,25.0,29.43,NE,36,4.0,-999.0,47,-99.99,,,0.00,weatherlink.com 1.10,2013-05-28 09:24:00,
2013-05-28 03:39:00,44.1,25.0,29.43,NNW,328,0.0,-999.0,48,-99.99,,,0.00,weatherlink.com 1.10,2013-05-28 09:39:00,
2013-05-28 03:54:00,43.9,24.0,29.43,NW,324,7.0,-999.0,46,-99.99,,,0.00,weatherlink.com 1.10,2013-05-28 09:54:00,
2013-05-28 04:09:00,44.5,24.0,29.43,NNW,331,4.0,-999.0,45,-99.99,,,0.00,weatherlink.com 1.10,2013-05-28 10:09:00,
2013-05-28 04:24:00,44.8,24.0,29.43,NNW,330,0.0,-999.0,45,-99.99,,,0.00,weatherlink.com 1.10,2013-05-28 10:24:00,
2013-05-28 04:39:00,44.3,24.0,29.43,NNW,332,2.0,-999.0,45,-99.99,,,0.00,weatherlink.com 1.10,2013-05-28 10:39:00,
2013-05-28 04:54:00,44.5,24.0,29.43,NNW,332,3.0,-999.0,45,-99.99,,,0.00,weatherlink.com 1.10,2013-05-28 10:54:00,
2013-05-28 05:09:00,44.3,25.0,29.43,NNW,332,0.0,-999.0,46,-99.99,,,0.00,weatherlink.com 1.10,2013-05-28 11:09:00,
2013-05-28 05:24:00,43.9,25.0,29.43,NNW,335,3.0,-999.0,47,-99.99,,,0.00,weatherlink.com 1.10,2013-05-28 11:24:00,
2013-05-28 05:39:00,43.5,25.0,29.43,SE,140,2.0,-999.0,49,-99.99,,,0.00,weatherlink.com 1.10,2013-05-28 11:39:00,
2013-05-28 05:54:00,44.2,27.0,29.43,SE,140,6.0,-999.0,51,-99.99,,,0.00,weatherlink.com 1.10,2013-05-28 11:54:00,
2013-05-28 06:09:00,44.3,27.0,29.43,North,360,5.0,-999.0,52,-99.99,,,0.00,weatherlink.com 1.10,2013-05-28 12:09:00,
2013-05-28 06:24:00,44.4,28.0,29.43,ESE,119,1.0,-999.0,53,-99.99,,,0.00,weatherlink.com 1.10,2013-05-28 12:24:00,
2013-05-28 06:39:00,44.2,28.0,29.43,SE,130,4.0,-999.0,54,-99.99,,,0.00,weatherlink.com 1.10,2013-05-28 12:39:00,
2013-05-28 06:54:00,44.4,29.0,29.43,SE,132,1.0,-999.0,55,-99.99,,,0.00,weatherlink.com 1.10,2013-05-28 12:54:00,
2013-05-28 07:09:00,46.2,30.0,29.43,ESE,105,2.0,-999.0,53,-99.99,,,0.00,weatherlink.com 1.10,2013-05-28 13:09:00,
2013-05-28 07:24:00,48.3,31.0,29.42,SE,137,1.0,-999.0,51,-99.99,,,0.00,weatherlink.com 1.10,2013-05-28 13:24:00,
2013-05-28 07:40:00,50.3,31.0,29.42,SE,137,0.0,-999.0,47,-99.99,,,0.00,weatherlink.com 1.10,2013-05-28 13:40:00,
2013-05-28 07:55:00,52.8,31.0,29.42,SE,137,0.0,-999.0,44,-99.99,,,0.00,weatherlink.com 1.10,2013-05-28 13:55:00,
2013-05-28 08:10:00,53.9,32.0,29.42,SE,137,1.0,-999.0,44,-99.99,,,0.00,weatherlink.com 1.10,2013-05-28 14:10:00,
2013-05-28 08:25:00,54.3,32.0,29.42,SE,127,0.0,-999.0,43,-99.99,,,0.00,weatherlink.com 1.10,2013-05-28 14:25:00,
2013-05-28 08:40:00,54.1,32.0,29.41,SE,128,0.0,-999.0,44,-99.99,,,0.00,weatherlink.com 1.10,2013-05-28 14:40:00,
2013-05-28 08:55:00,54.4,34.0,29.42,SE,130,0.0,-999.0,46,-99.99,,,0.00,weatherlink.com 1.10,2013-05-28 14:55:00,
2013-05-28 09:10:00,56.3,34.0,29.41,SE,146,0.0,-999.0,43,-99.99,,,0.00,weatherlink.com 1.10,2013-05-28 15:10:00,
2013-05-28 09:25:00,57.5,36.0,29.40,SSE,148,0.0,-999.0,45,-99.99,,,0.00,weatherlink.com 1.10,2013-05-28 15:25:00,
2013-05-28 09:40:00,59.0,33.0,29.40,SE,144,3.0,-999.0,37,-99.99,,,0.00,weatherlink.com 1.10,2013-05-28 15:40:00,
2013-05-28 09:55:00,59.9,32.0,29.40,SE,141,5.0,-999.0,35,-99.99,,,0.00,weatherlink.com 1.10,2013-05-28 15:55:00,
2013-05-28 10:10:00,61.4,35.0,29.39,SE,135,0.0,-999.0,37,-99.99,,,0.00,weatherlink.com 1.10,2013-05-28 16:10:00,
2013-05-28 10:25:00,62.0,35.0,29.39,North,360,2.0,-999.0,37,-99.99,,,0.00,weatherlink.com 1.10,2013-05-28 16:25:00,
2013-05-28 10:40:00,62.8,37.0,29.38,ESE,123,0.0,-999.0,38,-99.99,,,0.00,weatherlink.com 1.10,2013-05-28 16:40:00,
2013-05-28 10:55:00,62.7,37.0,29.38,SE,142,3.0,-999.0,38,-99.99,,,0.00,weatherlink.com 1.10,2013-05-28 16:55:00,
2013-05-28 11:10:00,62.9,39.0,29.37,SSE,150,5.0,-999.0,42,-99.99,,,0.00,weatherlink.com 1.10,2013-05-28 17:10:00,
2013-05-28 11:25:00,62.9,37.0,29.36,SE,137,8.0,-999.0,39,-99.99,,,0.00,weatherlink.com 1.10,2013-05-28 17:25:00,
2013-05-28 11:40:00,64.1,38.0,29.36,SE,128,1.0,-999.0,39,-99.99,,,0.00,weatherlink.com 1.10,2013-05-28 17:40:00,
2013-05-28 11:55:00,64.6,38.0,29.35,SE,138,4.0,-999.0,38,-99.99,,,0.00,weatherlink.com 1.10,2013-05-28 17:55:00,
2013-05-28 12:10:00,65.0,37.0,29.34,North,360,11.0,-999.0,35,-99.99,,,0.00,weatherlink.com 1.10,2013-05-28 18:10:00,
2013-05-28 12:25:00,65.6,36.0,29.34,SE,141,8.0,-999.0,34,-99.99,,,0.00,weatherlink.com 1.10,2013-05-28 18:25:00,
2013-05-28 12:40:00,65.6,37.0,29.34,SE,146,11.0,-999.0,35,-99.99,,,0.00,weatherlink.com 1.10,2013-05-28 18:40:00,
2013-05-28 12:55:00,65.3,38.0,29.34,SSE,165,6.0,-999.0,36,-99.99,,,0.00,weatherlink.com 1.10,2013-05-28 18:55:00,
2013-05-28 13:10:00,62.5,37.0,29.34,SE,143,11.0,-999.0,39,-99.99,,,0.00,weatherlink.com 1.10,2013-05-28 19:10:00,
2013-05-28 13:25:00,61.5,39.0,29.33,ESE,119,12.0,-999.0,43,-99.99,,,0.00,weatherlink.com 1.10,2013-05-28 19:25:00,
2013-05-28 13:40:00,61.3,38.0,29.34,North,360,6.0,-999.0,43,-99.99,,,0.00,weatherlink.com 1.10,2013-05-28 19:40:00,
2013-05-28 13:55:00,61.0,40.0,29.34,South,176,5.0,-999.0,46,-99.99,,,0.00,weatherlink.com 1.10,2013-05-28 19:55:00,
2013-05-28 14:10:00,60.8,40.0,29.34,SSE,152,13.0,-999.0,47,-99.99,,,0.00,weatherlink.com 1.10,2013-05-28 20:10:00,
2013-05-28 14:25:00,61.3,41.0,29.33,North,360,7.0,-999.0,47,-99.99,,,0.00,weatherlink.com 1.10,2013-05-28 20:25:00,
2013-05-28 14:40:00,63.8,40.0,29.32,SE,146,12.0,-999.0,42,-99.99,,,0.00,weatherlink.com 1.10,2013-05-28 20:40:00,
2013-05-28 14:56:00,65.5,38.0,29.32,SSE,152,7.0,-999.0,36,-99.99,,,0.00,weatherlink.com 1.10,2013-05-28 20:56:00,
2013-05-28 15:11:00,63.6,35.0,29.31,SSE,159,20.0,-999.0,35,-99.99,,,0.00,weatherlink.com 1.10,2013-05-28 21:11:00,
2013-05-28 15:26:00,62.1,40.0,29.32,North,360,9.0,-999.0,44,-99.99,,,0.00,weatherlink.com 1.10,2013-05-28 21:26:00,
2013-05-28 15:41:00,64.0,39.0,29.31,SE,130,4.0,-999.0,40,-99.99,,,0.00,weatherlink.com 1.10,2013-05-28 21:41:00,
2013-05-28 15:56:00,64.9,39.0,29.30,SE,134,11.0,-999.0,39,-99.99,,,0.00,weatherlink.com 1.10,2013-05-28 21:56:00,
2013-05-28 16:11:00,62.7,38.0,29.30,ESE,112,6.0,-999.0,40,-99.99,,,0.00,weatherlink.com 1.10,2013-05-28 22:11:00,
2013-05-28 16:26:00,61.5,33.0,29.29,SE,128,5.0,-999.0,35,-99.99,,,0.00,weatherlink.com 1.10,2013-05-28 22:26:00,
2013-05-28 16:41:00,63.4,36.0,29.29,SE,130,1.0,-999.0,37,-99.99,,,0.00,weatherlink.com 1.10,2013-05-28 22:41:00,
2013-05-28 16:56:00,63.0,28.0,29.28,SSE,157,8.0,-999.0,27,-99.99,,,0.00,weatherlink.com 1.10,2013-05-28 22:56:00,
2013-05-28 17:11:00,63.8,27.0,29.28,SSE,167,7.0,-999.0,25,-99.99,,,0.00,weatherlink.com 1.10,2013-05-28 23:11:00,
2013-05-28 17:26:00,63.9,27.0,29.28,SSE,160,19.0,-999.0,25,-99.99,,,0.00,weatherlink.com 1.10,2013-05-28 23:26:00,
2013-05-28 17:41:00,63.2,27.0,29.28,South,173,11.0,-999.0,25,-99.99,,,0.00,weatherlink.com 1.10,2013-05-28 23:41:00,
2013-05-28 17:56:00,63.5,27.0,29.28,South,181,13.0,-999.0,25,-99.99,,,0.00,weatherlink.com 1.10,2013-05-28 23:56:00,
2013-05-28 18:11:00,63.4,27.0,29.28,SSW,210,13.0,-999.0,25,-99.99,,,0.00,weatherlink.com 1.10,2013-05-29 00:11:00,
2013-05-28 18:26:00,63.0,27.0,29.28,South,190,8.0,-999.0,25,-99.99,,,0.00,weatherlink.com 1.10,2013-05-29 00:26:00,
2013-05-28 18:41:00,62.7,27.0,29.29,South,184,14.0,-999.0,26,-99.99,,,0.00,weatherlink.com 1.10,2013-05-29 00:41:00,
2013-05-28 18:56:00,61.4,25.0,29.29,SW,228,5.0,-999.0,25,-99.99,,,0.00,weatherlink.com 1.10,2013-05-29 00:56:00,
2013-05-28 19:11:00,61.3,25.0,29.28,SSW,205,8.0,-999.0,25,-99.99,,,0.00,weatherlink.com 1.10,2013-05-29 01:11:00,
2013-05-28 19:26:00,61.1,28.0,29.29,SSW,195,13.0,-999.0,28,-99.99,,,0.00,weatherlink.com 1.10,2013-05-29 01:26:00,
2013-05-28 19:41:00,59.8,26.0,29.29,SW,214,5.0,-999.0,27,-99.99,,,0.00,weatherlink.com 1.10,2013-05-29 01:41:00,
2013-05-28 19:56:00,58.2,26.0,29.30,North,360,6.0,-999.0,29,-99.99,,,0.00,weatherlink.com 1.10,2013-05-29 01:56:00,
2013-05-28 20:11:00,56.8,26.0,29.30,SW,224,11.0,-999.0,30,-99.99,,,0.00,weatherlink.com 1.10,2013-05-29 02:11:00,
2013-05-28 20:26:00,55.3,26.0,29.31,North,360,4.0,-999.0,33,-99.99,,,0.00,weatherlink.com 1.10,2013-05-29 02:26:00,
2013-05-28 20:41:00,54.0,26.0,29.30,WNW,288,6.0,-999.0,34,-99.99,,,0.00,weatherlink.com 1.10,2013-05-29 02:41:00,
2013-05-28 20:56:00,53.4,27.0,29.32,WNW,290,9.0,-999.0,36,-99.99,,,0.00,weatherlink.com 1.10,2013-05-29 02:56:00,
2013-05-28 21:11:00,52.7,28.0,29.32,WNW,292,7.0,-999.0,38,-99.99,,,0.00,weatherlink.com 1.10,2013-05-29 03:11:00,
2013-05-28 21:26:00,51.7,28.0,29.32,WNW,292,7.0,-999.0,40,-99.99,,,0.00,weatherlink.com 1.10,2013-05-29 03:26:00,
2013-05-28 21:41:00,51.2,28.0,29.32,NW,316,0.0,-999.0,41,-99.99,,,0.00,weatherlink.com 1.10,2013-05-29 03:41:00,
2013-05-28 21:56:00,51.1,27.0,29.32,WNW,298,10.0,-999.0,40,-99.99,,,0.00,weatherlink.com 1.10,2013-05-29 03:56:00,
2013-05-28 22:11:00,51.1,27.0,29.32,NNW,330,5.0,-999.0,40,-99.99,,,0.00,weatherlink.com 1.10,2013-05-29 04:11:00,
2013-05-28 22:26:00,51.2,28.0,29.32,NW,311,9.0,-999.0,41,-99.99,,,0.00,weatherlink.com 1.10,2013-05-29 04:26:00,
2013-05-28 22:41:00,50.9,28.0,29.32,NW,322,9.0,-999.0,41,-99.99,,,0.00,weatherlink.com 1.10,2013-05-29 04:41:00,
2013-05-28 22:56:00,50.8,28.0,29.32,NW,306,6.0,-999.0,41,-99.99,,,0.00,weatherlink.com 1.10,2013-05-29 04:56:00,
2013-05-28 23:11:00,50.8,27.0,29.31,SSE,148,0.0,-999.0,40,-99.99,,,0.00,weatherlink.com 1.10,2013-05-29 05:11:00,
2013-05-28 23:26:00,50.6,27.0,29.30,SSE,148,3.0,-999.0,40,-99.99,,,0.00,weatherlink.com 1.10,2013-05-29 05:26:00,
2013-05-28 23:41:00,49.5,27.0,29.29,SSE,149,4.0,-999.0,42,-99.99,,,0.00,weatherlink.com 1.10,2013-05-29 05:41:00,
2013-05-28 23:56:00,48.7,26.0,29.30,SSE,149,0.0,-999.0,42,-99.99,,,0.00,weatherlink.com 1.10,2013-05-29 05:56:00,